Weather History for Harrisburg, IL

Change the Weather History Date:

Sunday, February 3, 2013

  Actual Average (KMWA) Record (KMWA)
Temperature  
Mean Temperature 26 °F -  
Max Temperature 33 °F 40 °F 60 °F (2003)
Min Temperature 19 °F 21 °F -11 °F (1985)
Degree Days  
Heating Degree Days 39    
Moisture  
Dew Point 24 °F    
Average Humidity 85    
Maximum Humidity 100    
Minimum Humidity 55    
Precipitation  
Precipitation 0.19 in - - ()
Sea Level Pressure  
Sea Level Pressure 30.11 in    
Wind  
Wind Speed 5 mph (WNW)    
Max Wind Speed 20 mph    
Max Gust Speed 29 mph    
Visibility 8 miles    
Events Fog , Snow    
Averages and records for this station are not official NWS values.
T = Trace of Precipitation, MM = Missing Value Source: NWS Daily Summary

Daily Weather History Graph

Daily Weather History Graph

Search for Another Location

Airport:

Trip Planner

Search our weather history database for the weather conditions in past years. The results will help you decide how hot, cold, wet, or windy it might be!

Date:

Astronomy

Feb. 03, 2013 Rise Set
Actual Time 6:56 AM CST 5:20 PM CST
Civil Twilight 6:28 AM CST 5:47 PM CST
Nautical Twilight 5:57 AM CST 6:19 PM CST
Astronomical Twilight 5:26 AM CST 6:49 PM CST
Moon 12:23 AM CST (2/3) 10:58 AM CST (2/3)
Length of Visible Light 11h 19m
Length of Day
10h 24m
Waning Gibbous, 48% of the Moon is Illuminated
Feb 3
Waning Gibbous
Feb 10
New
Feb 17
First Quarter
Feb 25
Full
Mar 4
Last Quarter

Hourly Weather History & Observations

Time (CST) Temp. Windchill Dew Point Humidity Pressure Visibility Wind Dir Wind Speed Gust Speed Precip Events Conditions
12:15 AM 30.2 °F - 26.6 °F 86% 30.09 in 10.0 mi Calm Calm - N/A   Overcast
12:35 AM 32.0 °F - 26.6 °F 80% 30.09 in 10.0 mi Calm Calm - N/A   Overcast
12:55 AM 32.0 °F - 26.6 °F 80% 30.07 in 3.0 mi Calm Calm - N/A Snow Light Snow
1:15 AM 30.2 °F 25.4 °F 28.4 °F 93% 30.06 in 2.5 mi SE 4.6 mph - N/A Snow Light Snow
1:35 AM 30.2 °F 26.7 °F 28.4 °F 93% 30.06 in 0.8 mi SSE 3.5 mph - N/A Snow Snow
1:55 AM 30.2 °F 26.7 °F 30.2 °F 100% 30.05 in 0.5 mi South 3.5 mph - N/A Snow Heavy Snow
2:15 AM 30.2 °F 25.4 °F 30.2 °F 100% 30.05 in 0.5 mi SSE 4.6 mph - N/A Snow Heavy Snow
2:35 AM 30.2 °F - 30.2 °F 100% 30.04 in 2.0 mi Calm Calm - N/A Snow Light Snow
2:55 AM 30.2 °F - 30.2 °F 100% 30.03 in 3.0 mi Calm Calm - N/A   Overcast
3:15 AM 30.2 °F - 30.2 °F 100% 30.02 in 3.0 mi Calm Calm - N/A   Overcast
3:35 AM 30.2 °F - 30.2 °F 100% 30.02 in 3.0 mi Calm Calm - N/A   Overcast
3:55 AM 30.2 °F - 30.2 °F 100% 30.01 in 3.0 mi Calm Calm - N/A   Overcast
4:15 AM 30.2 °F - 30.2 °F 100% 30.01 in 3.0 mi Calm Calm - N/A   Overcast
4:35 AM 30.2 °F - 30.2 °F 100% 30.01 in 3.0 mi Calm Calm - N/A   Overcast
4:55 AM 28.4 °F - 28.4 °F 100% 30.01 in 1.2 mi Calm Calm - N/A   Mostly Cloudy
5:15 AM 26.6 °F - 26.6 °F 100% 30.01 in 0.2 mi Calm Calm - N/A Fog Light Freezing Fog
5:35 AM 26.6 °F - 26.6 °F 100% 30.01 in 0.2 mi Calm Calm - N/A Fog Light Freezing Fog
5:55 AM 23.0 °F 18.4 °F 23.0 °F 100% 30.01 in 0.2 mi West 3.5 mph - N/A Fog Light Freezing Fog
6:15 AM 23.0 °F 17.0 °F 23.0 °F 100% 30.01 in 0.2 mi West 4.6 mph - N/A Fog Light Freezing Fog
6:35 AM 30.2 °F 20.8 °F 30.2 °F 100% 30.02 in 10.0 mi WNW 11.5 mph - N/A   Scattered Clouds
6:55 AM 30.2 °F 20.8 °F 30.2 °F 100% 30.03 in 10.0 mi WNW 11.5 mph - N/A   Clear
7:15 AM 30.2 °F 21.9 °F 30.2 °F 100% 30.04 in 10.0 mi WNW 9.2 mph - N/A   Clear
7:35 AM 30.2 °F 21.3 °F 30.2 °F 100% 30.05 in 10.0 mi WNW 10.4 mph - N/A   Scattered Clouds
7:55 AM 32.0 °F 26.4 °F 32.0 °F 100% 30.06 in 7.0 mi WNW 5.8 mph - N/A   Overcast
8:15 AM 32.0 °F 25.6 °F 32.0 °F 100% 30.06 in 10.0 mi WNW 6.9 mph - N/A   Overcast
8:35 AM 32.0 °F 24.2 °F 30.2 °F 93% 30.08 in 10.0 mi West 9.2 mph - N/A   Overcast
8:55 AM 32.0 °F 24.8 °F 30.2 °F 93% 30.08 in 10.0 mi West 8.1 mph - N/A   Overcast
9:15 AM 32.0 °F 24.2 °F 30.2 °F 93% 30.09 in 10.0 mi West 9.2 mph - N/A   Overcast
9:35 AM 32.0 °F 24.2 °F 30.2 °F 93% 30.10 in 10.0 mi West 9.2 mph - N/A   Overcast
9:55 AM 32.0 °F 25.6 °F 30.2 °F 93% 30.11 in 10.0 mi WNW 6.9 mph - N/A   Overcast
10:15 AM 33.8 °F 24.8 °F 30.2 °F 87% 30.13 in 10.0 mi WNW 12.7 mph - N/A   Overcast
10:35 AM 33.8 °F 24.3 °F 30.2 °F 87% 30.13 in 10.0 mi WNW 13.8 mph 18.4 mph 0.05 in   Overcast
10:55 AM 33.8 °F 24.8 °F 28.4 °F 81% 30.14 in 10.0 mi WNW 12.7 mph 19.6 mph 0.12 in   Overcast
11:15 AM 33.8 °F 23.5 °F 26.6 °F 75% 30.14 in 10.0 mi WNW 16.1 mph 20.7 mph 0.05 in   Overcast
11:35 AM 33.8 °F 22.5 °F 26.6 °F 75% 30.15 in 10.0 mi WNW 19.6 mph 26.5 mph 0.07 in   Overcast
11:55 AM 33.8 °F 23.5 °F 26.6 °F 75% 30.15 in 10.0 mi WNW 16.1 mph 28.8 mph 0.07 in   Overcast
12:15 PM 33.8 °F 22.5 °F 26.6 °F 75% 30.15 in 10.0 mi WNW 19.6 mph 24.2 mph N/A   Overcast
12:35 PM 32.0 °F 21.6 °F 26.6 °F 80% 30.16 in 10.0 mi WNW 15.0 mph 21.9 mph N/A   Overcast
12:55 PM 32.0 °F 21.6 °F 26.6 °F 80% 30.16 in 10.0 mi WNW 15.0 mph 24.2 mph N/A   Overcast
1:15 PM 32.0 °F 20.8 °F 26.6 °F 80% 30.16 in 10.0 mi WNW 17.3 mph 24.2 mph N/A   Overcast
1:35 PM 32.0 °F 20.1 °F 24.8 °F 75% 30.17 in 10.0 mi WNW 19.6 mph 25.3 mph N/A   Overcast
1:55 PM 32.0 °F 22.1 °F 23.0 °F 69% 30.17 in 10.0 mi WNW 13.8 mph 23.0 mph N/A   Overcast
2:15 PM 32.0 °F 20.5 °F 23.0 °F 69% 30.17 in 10.0 mi WNW 18.4 mph 24.2 mph N/A   Mostly Cloudy
2:35 PM 32.0 °F 21.2 °F 23.0 °F 69% 30.17 in 10.0 mi WNW 16.1 mph 23.0 mph N/A   Mostly Cloudy
2:55 PM 32.0 °F 23.0 °F 23.0 °F 69% 30.18 in 10.0 mi NW 11.5 mph 17.3 mph N/A   Mostly Cloudy
3:15 PM 32.0 °F 22.5 °F 21.2 °F 64% 30.18 in 10.0 mi NW 12.7 mph - N/A   Mostly Cloudy
3:35 PM 32.0 °F 22.5 °F 21.2 °F 64% 30.18 in 10.0 mi NW 12.7 mph 18.4 mph N/A   Scattered Clouds
3:55 PM 32.0 °F 23.0 °F 19.4 °F 60% 30.19 in 10.0 mi NW 11.5 mph - N/A   Clear
4:15 PM 32.0 °F 24.8 °F 21.2 °F 64% 30.18 in 10.0 mi NW 8.1 mph - N/A   Clear
4:35 PM 32.0 °F 22.5 °F 17.6 °F 55% 30.18 in 10.0 mi NW 12.7 mph 19.6 mph N/A   Clear
4:55 PM 30.2 °F 22.6 °F 17.6 °F 60% 30.18 in 10.0 mi NW 8.1 mph - N/A   Clear
5:15 PM 30.2 °F - 17.6 °F 60% 30.18 in 10.0 mi Calm Calm - N/A   Clear
5:35 PM 30.2 °F - 17.6 °F 60% 30.18 in 10.0 mi Calm Calm - N/A   Clear
5:55 PM 28.4 °F - 17.6 °F 64% 30.18 in 10.0 mi Calm Calm - N/A   Clear
6:15 PM 26.6 °F - 19.4 °F 74% 30.18 in 10.0 mi Calm Calm - N/A   Clear
6:35 PM 24.8 °F - 17.6 °F 74% 30.19 in 10.0 mi Calm Calm - N/A   Clear
6:55 PM 24.8 °F - 19.4 °F 80% 30.18 in 10.0 mi Calm Calm - N/A   Clear
7:15 PM 23.0 °F - 17.6 °F 80% 30.18 in 10.0 mi Calm Calm - N/A   Clear
7:35 PM 21.2 °F - 17.6 °F 86% 30.18 in 10.0 mi Calm Calm - N/A   Clear
7:55 PM 23.0 °F - 19.4 °F 86% 30.17 in 10.0 mi Calm Calm - N/A   Clear
8:15 PM 21.2 °F - 17.6 °F 86% 30.17 in 10.0 mi Calm Calm - N/A   Clear
8:35 PM 19.4 °F - 17.6 °F 93% 30.17 in 10.0 mi Calm Calm - N/A   Clear
8:55 PM 21.2 °F - 17.6 °F 86% 30.16 in 10.0 mi Calm Calm - N/A   Clear
9:15 PM 19.4 °F - 17.6 °F 93% 30.15 in 10.0 mi Calm Calm - N/A   Clear
9:35 PM 19.4 °F 12.8 °F 15.8 °F 86% 30.13 in 10.0 mi ESE 4.6 mph - N/A   Clear
9:55 PM 19.4 °F - 17.6 °F 93% 30.14 in 10.0 mi Calm Calm - N/A   Clear
10:15 PM 21.2 °F 16.4 °F 17.6 °F 86% 30.13 in 10.0 mi East 3.5 mph - N/A   Clear
10:35 PM 21.2 °F 13.6 °F 17.6 °F 86% 30.12 in 10.0 mi East 5.8 mph - N/A   Clear
10:55 PM 21.2 °F - 15.8 °F 80% 30.13 in 10.0 mi Calm Calm - N/A   Clear
11:15 PM 21.2 °F 14.9 °F 17.6 °F 86% 30.11 in 10.0 mi East 4.6 mph - N/A   Clear
11:35 PM 19.4 °F 11.5 °F 14.0 °F 80% 30.10 in 10.0 mi East 5.8 mph - N/A   Clear
11:55 PM 21.2 °F 11.7 °F 17.6 °F 86% 30.09 in 10.0 mi ESE 8.1 mph - N/A   Clear